Weather History for KMRF - April, 2014

Change the Weather History Date:

Tuesday, April 8, 2014

  Actual Average Record
Temperature  
Mean Temperature 52 °F -  
Max Temperature 73 °F 71 °F 84 °F (2001)
Min Temperature 30 °F 39 °F 28 °F (2007)
Degree Days  
Heating Degree Days 14    
Growing Degree Days 2 (Base 50)    
Moisture  
Dew Point 20 °F    
Average Humidity 37    
Maximum Humidity 80    
Minimum Humidity 11    
Precipitation  
Precipitation 0.00 in - - ()
Sea Level Pressure  
Sea Level Pressure 30.31 in    
Wind  
Wind Speed 6 mph (NW)    
Max Wind Speed 12 mph    
Max Gust Speed 18 mph    
Visibility 10 miles    
Events      
Averages and records for this station are not official NWS values.
T = Trace of Precipitation, MM = Missing Value Source: NWS Daily Summary

Daily Weather History Graph

Daily Weather History Graph

Search for Another Location

Airport or City:

Trip Planner

Search our weather history database for the weather conditions in past years. The results will help you decide how hot, cold, wet, or windy it might be!

Date:

Astronomy

Apr. 08, 2014 Rise Set
Actual Time 7:36 AM CDT 8:19 PM CDT
Civil Twilight 7:12 AM CDT 8:43 PM CDT
Nautical Twilight 6:43 AM CDT 9:12 PM CDT
Astronomical Twilight 6:14 AM CDT 9:41 PM CDT
Moon 2:38 PM CDT (4/8) 3:26 AM CDT (4/8)
Length of Visible Light 13h 31m
Length of Day
12h 42m
Waxing Gibbous, 63% of the Moon is Illuminated
Apr 8
Waxing Gibbous
Apr 15
Full
Apr 22
Last Quarter
Apr 29
New
May 6
First Quarter

Hourly Weather History & Observations

Time (CDT) Temp. Windchill Dew Point Humidity Pressure Visibility Wind Dir Wind Speed Gust Speed Precip Events Conditions
12:15 AM 37.4 °F 32.1 °F 21.2 °F 52% 30.25 in 10.0 mi North 6.9 mph - N/A   Clear
12:35 AM 37.4 °F 32.8 °F 21.2 °F 52% 30.25 in 10.0 mi ENE 5.8 mph - N/A   Clear
12:55 AM 35.6 °F 31.7 °F 19.4 °F 52% 30.26 in 10.0 mi NNW 4.6 mph - N/A   Clear
1:15 AM 35.6 °F 29.9 °F 21.2 °F 56% 30.27 in 10.0 mi WNW 6.9 mph - N/A   Clear
1:35 AM 35.6 °F 29.9 °F 21.2 °F 56% 30.27 in 10.0 mi NW 6.9 mph - N/A   Clear
1:55 AM 37.4 °F 31.4 °F 23.0 °F 56% 30.28 in 10.0 mi NW 8.1 mph - N/A   Clear
2:15 AM 37.4 °F 30.8 °F 24.8 °F 60% 30.27 in 10.0 mi NNW 9.2 mph - N/A   Clear
2:35 AM 37.4 °F 30.8 °F 24.8 °F 60% 30.26 in 10.0 mi NNW 9.2 mph - N/A   Clear
2:55 AM 35.6 °F 29.2 °F 23.0 °F 60% 30.26 in 10.0 mi North 8.1 mph - N/A   Clear
3:15 AM 35.6 °F 31.7 °F 24.8 °F 65% 30.26 in 10.0 mi North 4.6 mph - N/A   Clear
3:35 AM 35.6 °F 29.9 °F 23.0 °F 60% 30.26 in 10.0 mi North 6.9 mph - N/A   Clear
3:55 AM 35.6 °F 29.9 °F 24.8 °F 65% 30.27 in 10.0 mi SSE 6.9 mph 16.1 mph N/A   Clear
4:15 AM 33.8 °F - 23.0 °F 65% 30.27 in 10.0 mi Calm Calm - N/A   Clear
4:35 AM 35.6 °F 30.7 °F 24.8 °F 65% 30.28 in 10.0 mi NE 5.8 mph - N/A   Clear
4:55 AM 33.8 °F 29.6 °F 23.0 °F 65% 30.28 in 10.0 mi East 4.6 mph - N/A   Clear
5:15 AM 30.2 °F 23.4 °F 21.2 °F 69% 30.28 in 10.0 mi North 6.9 mph - N/A   Clear
5:35 AM 33.8 °F 28.6 °F 24.8 °F 70% 30.29 in 10.0 mi NNW 5.8 mph - N/A   Clear
5:55 AM 32.0 °F 26.4 °F 21.2 °F 64% 30.30 in 10.0 mi NNW 5.8 mph - N/A   Clear
6:15 AM 33.8 °F 27.0 °F 24.8 °F 70% 30.30 in 10.0 mi NNW 8.1 mph - N/A   Clear
6:35 AM 33.8 °F 28.6 °F 24.8 °F 70% 30.31 in 10.0 mi North 5.8 mph - N/A   Clear
6:55 AM 33.8 °F 28.6 °F 24.8 °F 70% 30.31 in 10.0 mi North 5.8 mph - N/A   Clear
7:15 AM 33.8 °F 27.7 °F 23.0 °F 65% 30.32 in 10.0 mi North 6.9 mph - N/A   Clear
7:35 AM 30.2 °F 23.4 °F 24.8 °F 80% 30.33 in 10.0 mi North 6.9 mph - N/A   Clear
7:55 AM 30.2 °F 22.6 °F 23.0 °F 75% 30.34 in 10.0 mi North 8.1 mph - N/A   Clear
8:15 AM 33.8 °F 27.0 °F 24.8 °F 70% 30.36 in 10.0 mi North 8.1 mph - N/A   Clear
8:35 AM 39.2 °F 35.0 °F 26.6 °F 61% 30.36 in 10.0 mi North 5.8 mph - N/A   Clear
8:55 AM 44.6 °F 42.2 °F 28.4 °F 53% 30.36 in 10.0 mi North 4.6 mph - N/A   Clear
9:15 AM 48.2 °F - 26.6 °F 43% 30.37 in 10.0 mi NNE 4.6 mph - N/A   Clear
9:35 AM 51.8 °F - 28.4 °F 41% 30.37 in 10.0 mi NE 8.1 mph - N/A   Clear
9:55 AM 51.8 °F - 26.6 °F 38% 30.38 in 10.0 mi NE 3.5 mph - N/A   Clear
10:15 AM 53.6 °F - 26.6 °F 35% 30.38 in 10.0 mi East 5.8 mph - N/A   Clear
10:55 AM 55.4 °F - 24.8 °F 31% 30.39 in 10.0 mi South 5.8 mph - N/A   Clear
11:15 AM 57.2 °F - 24.8 °F 29% 30.39 in 10.0 mi South 5.8 mph - N/A   Clear
11:35 AM 57.2 °F - 24.8 °F 29% 30.40 in 10.0 mi SSW 6.9 mph - N/A   Clear
11:55 AM 59.0 °F - 24.8 °F 27% 30.40 in 10.0 mi SSE 5.8 mph - N/A   Clear
12:15 PM 60.8 °F - 24.8 °F 25% 30.39 in 10.0 mi South 4.6 mph - N/A   Clear
12:35 PM 62.6 °F - 24.8 °F 24% 30.39 in 10.0 mi SSW 4.6 mph - N/A   Clear
12:55 PM 62.6 °F - 24.8 °F 24% 30.38 in 10.0 mi SSE 3.5 mph - N/A   Clear
1:15 PM 64.4 °F - 24.8 °F 22% 30.37 in 10.0 mi SW 3.5 mph - N/A   Clear
1:35 PM 64.4 °F - 21.2 °F 19% 30.37 in 10.0 mi South 4.6 mph - N/A   Clear
1:55 PM 66.2 °F - 21.2 °F 18% 30.36 in 10.0 mi SSE 8.1 mph - N/A   Clear
2:15 PM 66.2 °F - 21.2 °F 18% 30.35 in 10.0 mi East 5.8 mph - N/A   Clear
2:35 PM 68.0 °F - 21.2 °F 17% 30.34 in 10.0 mi SSE 6.9 mph - N/A   Clear
2:55 PM 68.0 °F - 21.2 °F 17% 30.33 in 10.0 mi WSW 5.8 mph - N/A   Clear
3:35 PM 69.8 °F - 19.4 °F 15% 30.31 in 10.0 mi South 4.6 mph 16.1 mph N/A   Clear
3:55 PM 71.6 °F - 19.4 °F 14% 30.30 in 10.0 mi Calm Calm - N/A   Clear
4:15 PM 71.6 °F - 19.4 °F 14% 30.29 in 10.0 mi SSW 6.9 mph - N/A   Clear
4:35 PM 73.4 °F - 17.6 °F 12% 30.28 in 10.0 mi SW 6.9 mph 18.4 mph N/A   Clear
4:55 PM 71.6 °F - 17.6 °F 13% 30.28 in 10.0 mi WSW 10.4 mph 16.1 mph N/A   Clear
5:15 PM 73.4 °F - 15.8 °F 11% 30.28 in 10.0 mi West 9.2 mph - N/A   Clear
5:35 PM 73.4 °F - 17.6 °F 12% 30.28 in 10.0 mi West 8.1 mph 17.3 mph N/A   Clear
5:55 PM 73.4 °F - 17.6 °F 12% 30.27 in 10.0 mi West 9.2 mph 17.3 mph N/A   Clear
6:15 PM 73.4 °F - 15.8 °F 11% 30.27 in 10.0 mi WNW 10.4 mph 16.1 mph N/A   Clear
6:35 PM 73.4 °F - 15.8 °F 11% 30.27 in 10.0 mi West 10.4 mph - N/A   Clear
6:55 PM 73.4 °F - 15.8 °F 11% 30.27 in 10.0 mi WNW 10.4 mph 16.1 mph N/A   Clear
7:15 PM 71.6 °F - 15.8 °F 12% 30.28 in 10.0 mi WSW 8.1 mph - N/A   Clear
7:35 PM 71.6 °F - 15.8 °F 12% 30.28 in 10.0 mi WSW 10.4 mph - N/A   Clear
7:55 PM 69.8 °F - 15.8 °F 13% 30.28 in 10.0 mi West 11.5 mph - N/A   Clear
8:15 PM 66.2 °F - 12.2 °F 12% 30.28 in 10.0 mi West 8.1 mph - N/A   Clear
8:35 PM 62.6 °F - 10.4 °F 13% 30.29 in 10.0 mi West 6.9 mph - N/A   Clear
8:55 PM 59.0 °F - 10.4 °F 15% 30.29 in 10.0 mi WNW 5.8 mph - N/A   Clear
9:15 PM 55.4 °F - 10.4 °F 17% 30.30 in 10.0 mi NW 4.6 mph - N/A   Clear
9:35 PM 55.4 °F - 10.4 °F 17% 30.30 in 10.0 mi NNW 5.8 mph - N/A   Clear
9:55 PM 48.2 °F - 6.8 °F 19% 30.31 in 10.0 mi NNW 6.9 mph - N/A   Clear
10:15 PM 46.4 °F 41.5 °F 6.8 °F 20% 30.31 in 10.0 mi NNE 10.4 mph - N/A   Clear
10:35 PM 50.0 °F - 8.6 °F 19% 30.32 in 10.0 mi NE 8.1 mph - N/A   Clear
10:55 PM 48.2 °F - 8.6 °F 20% 30.32 in 10.0 mi NE 6.9 mph - N/A   Clear
11:15 PM 48.2 °F - 10.4 °F 22% 30.32 in 10.0 mi Calm Calm - N/A   Clear
11:35 PM 44.6 °F 42.2 °F 8.6 °F 23% 30.32 in 10.0 mi NW 4.6 mph - N/A   Clear
11:55 PM 42.8 °F 39.3 °F 8.6 °F 25% 30.31 in 10.0 mi NW 5.8 mph - N/A   Clear